This demonstration page uses our WeatherBlox Daily Observations layout. Learn more.

Left ArrowRight Arrow

Hourly Observations for December 9, 2015

Temp ( °F °C ) Dew Point ( °F °C ) Humidity (%) Winds ( mph kmh ) Pressure ( in mb ) Visibility ( mi km ) Precip ( " mm )
12:53 am 00:53 Clear 37 2.8 34 1.1 89 89 Calm 30.09 1019 10 16 0.00 0.00
1:53 am 01:53 Clear with Mist and Fog 36 2.2 34 1.1 93 93 Calm 30.08 1019 3 5 0.00 0.00
2:00 am 02:00 Clear with Mist and Fog 36 2 34 1 93 93 Calm 30.15 1021 2 3 0.00 0.00
2:09 am 02:09 Clear 38 3.3 34 1.1 86 86 Calm 30.15 1021 10 16 0.00 0.00
2:53 am 02:53 Clear 35 1.7 32 0 89 89 Calm 30.08 1019 10 16 0.00 0.00
3:53 am 03:53 Clear 36 2.2 33 0.6 89 89 Calm 30.09 1019 9 14 0.00 0.00
4:22 am 04:22 Clear with Mist and Fog 36 2 32 0 87 87 Calm 30.15 1021 2 3 0.00 0.00
4:30 am 04:30 Clear with Mist and Fog 36 2 32 0 87 87 Calm 30.15 1021 4 6 0.00 0.00
4:53 am 04:53 Clear 34 1.1 31 -0.6 89 89 Calm 30.07 1018 8 13 0.00 0.00
5:53 am 05:53 Clear 33 0.6 31 -0.6 92 92 Calm 30.09 1019 10 16 0.00 0.00
6:53 am 06:53 Clear 33 0.6 30 -1.1 89 89 Calm 30.10 1019 10 16 0.00 0.00
7:53 am 07:53 Sunny 33 0.6 30 -1.1 89 89 Calm 30.11 1020 9 14 0.00 0.00
8:53 am 08:53 Sunny 38 3.3 35 1.7 89 89 Calm 30.11 1020 10 16 0.00 0.00
9:53 am 09:53 Mostly Cloudy 45 7.2 40 4.4 83 83 Calm 30.10 1019 10 16 0.00 0.00
10:53 am 10:53 Mostly Cloudy 52 11.1 42 5.6 69 69 W 3 6 30.10 1019 7 11 0.00 0.00
11:53 am 11:53 Sunny 59 15 45 7.2 60 60 W 7 11 30.05 1018 10 16 0.00 0.00
12:53 pm 12:53 Mostly Cloudy 62 16.7 47 8.3 58 58 SW 12 19 30.03 1017 10 16 0.00 0.00
1:53 pm 13:53 Partly Cloudy 64 17.8 47 8.3 54 54 WSW 9 15 30.00 1016 10 16 0.00 0.00
2:53 pm 14:53 Mostly Cloudy 63 17.2 47 8.3 56 56 SSW 5 7 29.98 1015 10 16 0.00 0.00
3:53 pm 15:53 Mostly Cloudy 63 17.2 47 8.3 56 56 SW 7 11 29.97 1015 10 16 0.00 0.00
4:53 pm 16:53 Mostly Sunny 64 17.8 47 8.3 54 54 SSW 7 11 29.98 1015 10 16 0.00 0.00
5:53 pm 17:53 Partly Cloudy 58 14.4 47 8.3 67 67 SSE 5 7 30.00 1016 10 16 0.00 0.00
6:53 pm 18:53 Cloudy 61 16.1 48 8.9 63 63 S 3 6 30.00 1016 10 16 0.00 0.00
7:53 pm 19:53 Cloudy 58 14.4 48 8.9 70 70 Calm 30.01 1016 10 16 0.00 0.00
8:53 pm 20:53 Mostly Cloudy 56 13.3 48 8.9 75 75 W 3 6 30.00 1016 10 16 0.00 0.00
9:53 pm 21:53 Mostly Clear 51 10.6 46 7.8 83 83 Calm 30.01 1016 10 16 0.00 0.00
10:53 pm 22:53 Partly Cloudy 50 10 46 7.8 86 86 Calm 30.01 1016 9 14 0.00 0.00
11:53 pm 23:53 Cloudy 52 11.1 48 8.9 86 86 Calm 30.00 1016 10 16 0.00 0.00

Powered by AerisWeather